Nassau, Bahamas

10:08 AM EDT on April 27, 2017 (GMT -0400)
Nassau International

Weather History for MYNN - February, 2013

Change the Weather History Date:

Wednesday, February 13, 2013

  Actual Average Record
Temperature  
Mean Temperature 76 °F -  
Max Temperature 82 °F 79 °F 86 °F (2004)
Min Temperature 68 °F 63 °F 51 °F (2006)
Cooling Degree Days 10    
Growing Degree Days 26 (Base 50)    
Moisture  
Dew Point 66 °F    
Average Humidity 76    
Maximum Humidity 94    
Minimum Humidity 50    
Precipitation  
Precipitation 0.00 in 0.05 in - ()
Sea Level Pressure  
Sea Level Pressure 30.06 in    
Wind  
Wind Speed 5 mph ()    
Max Wind Speed 16 mph    
Max Gust Speed -    
Visibility 6.9 miles    
Events      
Averages and records for this station are not official NWS values.
T = Trace of Precipitation, MM = Missing Value Source: Averaged Metar Reports

Daily Weather History Graph

Daily Weather History Graph

Search for Another Location

Airport or City:

Trip Planner

Search our weather history database for the weather conditions in past years. The results will help you decide how hot, cold, wet, or windy it might be!

Date:

Astronomy

Feb. 13, 2013 Rise Set
Actual Time 6:45 AM EST 6:03 PM EST
Civil Twilight 6:22 AM EST 6:26 PM EST
Nautical Twilight 5:55 AM EST 6:53 PM EST
Astronomical Twilight 5:28 AM EST 7:20 PM EST
Moon 8:42 AM EST (2/13) 9:31 PM EST (2/13)
Length of Visible Light 12h 04m
Length of Day
11h 17m
Waxing Crescent, 13% of the Moon is Illuminated
Feb 13
Waxing Crescent
Feb 17
First Quarter
Feb 25
Full
Mar 4
Last Quarter
Mar 11
New

Hourly Weather History & Observations

Time (EST) Temp. Heat Index Dew Point Humidity Pressure Visibility Wind Dir Wind Speed Gust Speed Precip Events Conditions
12:00 AM 71.6 °F - 68.0 °F 88% 30.07 in 6.2 mi Variable 2.3 mph - N/A   Partly Cloudy
1:00 AM 72 °F - 68 °F 85% 30.06 in 9 mi SSE 3.5 mph - -   Scattered Clouds
1:00 AM 71.6 °F - 68.0 °F 88% 30.05 in 6.2 mi SSE 3.5 mph - N/A   Partly Cloudy
2:00 AM 71.6 °F - 68.0 °F 88% 30.06 in 6.2 mi SSE 3.5 mph - N/A   Partly Cloudy
4:00 AM 71 °F - 67 °F 83% 30.04 in 9 mi 2.3 mph - -   Scattered Clouds
4:00 AM 69.8 °F - 66.2 °F 88% 30.04 in 6.2 mi Variable 2.3 mph - N/A   Partly Cloudy
5:00 AM 69.8 °F - 66.2 °F 88% 30.02 in 6.2 mi SSE 3.5 mph - N/A   Partly Cloudy
6:00 AM 69.8 °F - 66.2 °F 88% 30.04 in 6.2 mi SSE 3.5 mph - N/A   Partly Cloudy
7:00 AM 71 °F - 67 °F 82% 30.06 in 9 mi SSE 3.5 mph - -   Scattered Clouds
7:00 AM 71.6 °F - 66.2 °F 83% 30.05 in 6.2 mi SSE 3.5 mph - N/A   Partly Cloudy
8:00 AM 73.4 °F - 66.2 °F 78% 30.07 in 6.2 mi SSE 4.6 mph - N/A   Partly Cloudy
9:00 AM 75.2 °F - 66.2 °F 73% 30.08 in 6.2 mi East 11.5 mph - N/A   Partly Cloudy
10:00 AM 78 °F - 65 °F 56% 30.09 in 9 mi SSE 9.2 mph - -   Scattered Clouds
10:00 AM 78.8 °F - 64.4 °F 61% 30.09 in 6.2 mi SSE 9.2 mph - N/A   Partly Cloudy
11:00 AM 78.8 °F - 64.4 °F 61% 30.08 in 6.2 mi South 13.8 mph - N/A   Partly Cloudy
12:00 PM 78.8 °F - 66.2 °F 65% 30.06 in 6.2 mi SSE 13.8 mph - N/A   Partly Cloudy
1:00 PM 82 °F - 67 °F 50% 30.04 in 9 mi SSE 11.5 mph - -   Scattered Clouds
1:00 PM 82.4 °F 84.6 °F 66.2 °F 58% 30.04 in 6.2 mi SSE 11.5 mph - N/A   Partly Cloudy
2:00 PM 78.8 °F - 66.2 °F 65% 30.03 in 6.2 mi South 16.1 mph - N/A   Partly Cloudy
11:00 PM 68.0 °F - 66.2 °F 94% 30.03 in - Calm Calm - N/A   Clear